sat.trackr.live / text

‹ back to catalog

STARLINK-32661

NORAD 62899 · 2025-024W

PAYLOAD ACTIVE UNKNOWN

§ Identity

Operator
Country
US
Launch date
2025-02-04
Launch site
AFETR
Launch vehicle
Mass (kg)
RCS (m²)

Purposes: comms

External: N2YO · Heavens-Above · Gunter

§ Orbital elements

Epoch: 2026-09-21T08:55:36.981984Z

Period
94.27 min
Inclination
43.0001°
Eccentricity
0.0001635
Mean motion
15.27588637 rev/d
Perigee alt
481.9 km
Apogee alt
484.1 km
Semi-major
6,861.2 km
B*
3.6714e-4
RAAN
300.1955°
Arg perigee
258.6046°
Mean anomaly
101.4622°
Rev number
9,219

§ Raw data

STARLINK-326611 62899U 25024W   26264.37195581  .00009857  00000+0  36714-3 0  99982 62899  43.0001 300.1955 0001635 258.6046 101.4622 15.27588637 92192

JSON: /api/v1/satellites/62899 · /tle

For live sub-satellite position, see the globe view (requires WebGL).

§ Visibility from observer

Set your observer location to see the next 7 days of passes ≥ 10°. The values pass through the URL so the page stays shareable.

No JS? Fill the form by hand. The geolocation button needs JavaScript.